Home   Weather   Peterborough   Past weeks

Flag for Canada Past Weather in Peterborough, Ontario, Canada — Yesterday and Last 2 Weeks

Now
30 °F

Overcast.


Feels Like: 21 °F
Forecast: 23 / 33 °F
Wind: 12 mph from West

Location: Peterborough Airport

Current Time: Feb 26, 2017 at 12:11:22 pm

Latest Report: Feb 26, 2017 at 11:00 am


Visibility: 9 mi

Pressure: 30.01 "Hg

Humidity: 64%

Dew Point: 19 °F

Location of PeterboroughLocation

Past Weather in Peterborough — Graph

°F

Peterborough Temperature Yesterday

Maximum temperature yesterday: 46 °F (at 10:00 am)
Minimum temperature yesterday: 27 °F (at 10:59 pm)
Average temperature yesterday: 37 °F

High & Low Weather Summary for the Past Weeks

 TemperatureHumidityPressure
High64 °F (Feb 23, 2:00 pm)100% (Feb 11, 7:00 pm)30.40 "Hg (Feb 11, 7:00 pm)
Low-2 °F (Feb 14, 4:00 am)30% (Feb 20, 4:00 pm)29.42 "Hg (Feb 25, 9:08 am)
Average30 °F86%29.80 "Hg
* Reported Feb 11 11:00 am — Feb 26 11:00 am, Peterborough, Weather by CustomWeather, © 2017

Note: Actual official high and low records may vary slightly from our data, if they occured in-between our weather recording intervals... More about our weather records

Advertising

Peterborough Weather History for the Previous 24 Hours

Scroll right to see more
 ConditionsComfort  
Time TempWeatherWind HumidityBarometerVisibility
11:00 am
Sun, Feb 26
30 °FOvercast.12 mph64%30.01 "Hg9 mi
10:00 am28 °FOvercast.8 mph74%30.01 "Hg9 mi
9:00 am25 °FOvercast.5 mph86%29.99 "Hg9 mi
8:51 am25 °FOvercast.6 mph86%29.99 "Hg9 mi
8:04 am25 °FLight snow. Mostly cloudy.5 mph86%29.98 "Hg6 mi
7:54 am25 °FLight snow. Overcast.5 mph86%29.97 "Hg5 mi
7:14 am23 °FLight snow. Overcast.3 mph93%29.95 "Hg6 mi
7:03 am23 °FLight snow. Overcast.2 mph93%29.94 "Hg5 mi
6:37 am23 °FLight snow. Overcast.5 mph86%29.93 "Hg5 mi
6:00 am23 °FLight snow. Overcast.6 mph86%29.91 "Hg9 mi
5:54 am23 °FLight snow. Overcast.8 mph86%29.91 "Hg9 mi
5:40 am23 °FOvercast.8 mph86%29.90 "Hg9 mi
5:00 am21 °FClear.9 mph86%29.88 "Hg9 mi
4:25 am23 °FPassing clouds.13 mph80%29.86 "Hg9 mi
4:00 am23 °FLight snow. Passing clouds.15 mph86%29.85 "Hg9 mi
3:58 am23 °FLight snow. Passing clouds.15 mph86%29.85 "Hg9 mi
3:39 am25 °FLight snow. Mostly cloudy.15 mph86%29.83 "Hg9 mi
3:22 am25 °FLight snow. Mostly cloudy.10 mph93%29.82 "Hg1 mi
3:10 am25 °FLight snow. Overcast.13 mph86%29.81 "Hg1 mi
2:39 am25 °FLight snow. Mostly cloudy.13 mph86%29.80 "Hg5 mi
2:25 am25 °FLight snow. Mostly cloudy.10 mph86%29.80 "Hg3 mi
1:49 am25 °FLight snow. Mostly cloudy.13 mph93%29.78 "Hg1 mi
1:35 am25 °FLight snow. Mostly cloudy.12 mph93%29.78 "Hg1 mi
1:24 am27 °FLight snow. Mostly cloudy.20 mph80%29.76 "Hg9 mi
1:00 am27 °FLight snow. Mostly cloudy.16 mph80%29.75 "Hg9 mi
12:31 am27 °FLight snow. Overcast.12 mph80%29.75 "Hg9 mi
12:12 am27 °FLight snow. Mostly cloudy.14 mph86%29.75 "Hg9 mi
12:02 am27 °FLight snow. Overcast.12 mph86%29.75 "Hg9 mi
11:39 pm
Sat, Feb 25
27 °FLight snow. Mostly cloudy.18 mph80%29.74 "Hg9 mi
11:18 pm27 °FLight snow. Mostly cloudy.20 mph86%29.74 "Hg9 mi
10:59 pm27 °FLight snow. Mostly cloudy.17 mph93%29.73 "Hg5 mi
10:43 pm28 °FLight snow. Overcast.21 mph80%29.72 "Hg4 mi
10:39 pm28 °FLight snow. Overcast.18 mph74%29.72 "Hg9 mi
10:25 pm28 °FLight snow. Mostly cloudy.15 mph86%29.72 "Hg3 mi
10:00 pm30 °FOvercast.22 mph69%29.70 "Hg9 mi
9:49 pm30 °FOvercast.22 mph69%29.70 "Hg9 mi
9:25 pm30 °FLight snow. Overcast.18 mph75%29.70 "Hg9 mi
9:07 pm32 °FLight snow. Mostly cloudy.15 mph75%29.68 "Hg9 mi
8:00 pm32 °FLight snow. Mostly cloudy.18 mph75%29.65 "Hg9 mi
7:00 pm34 °FOvercast.14 mph65%29.60 "Hg9 mi
6:00 pm36 °FMostly cloudy.20 mph70%29.55 "Hg9 mi
5:00 pm39 °FCloudy.14 mph65%29.54 "Hg9 mi
4:45 pm37 °FMostly cloudy.25 mph70%29.53 "Hg9 mi
4:00 pm39 °FCloudy.10 mph75%29.50 "Hg9 mi
3:34 pm41 °FMore clouds than sun.15 mph76%29.48 "Hg9 mi
3:13 pm41 °FLight rain. Mostly cloudy.22 mph76%29.49 "Hg9 mi
3:00 pm41 °FLight rain. More clouds than sun.10 mph81%29.48 "Hg9 mi
2:42 pm43 °FLight rain. Mostly cloudy.12 mph71%29.47 "Hg9 mi
2:00 pm45 °FOvercast.9 mph76%29.44 "Hg9 mi
1:00 pm41 °FOvercast.8 mph87%29.46 "Hg9 mi
12:19 pm41 °FMore clouds than sun.9 mph93%29.47 "Hg9 mi
12:06 pm43 °FLight rain. More clouds than sun.12 mph87%29.46 "Hg9 mi
Weather by CustomWeather, © 2017

See weather overviewHow to use our weather pages

LIVE ANNULAR SOLAR ECLIPSE – Watch the eclipse as it happens